Wind_Speed
41 42 46 48 54 59 60 58 55 53 55 53 59 65 63 57 51 50 51 41 61 65 65 45 59 51 55 48 52 41 36 41 39 38 41 45 45 44 43 41 40 41 45
39 41 42 44 49 51 47 48 51 50 48 49 57 67 67 58 50 47 52 45 51 65 61 63 50 42 45 45 41 36 31 35 36 38 43 45 44 42 39 40 41 43 48
43 47 41 39 44 50 49 49 48 51 47 49 55 63 66 55 49 47 49 43 45 55 61 48 51 53 36 43 39 33 33 33 33 37 42 41 40 37 38 39 42 47 52
46 42 39 42 46 44 49 47 39 35 41 46 50 58 59 54 48 48 45 41 35 43 49 56 38 50 43 36 36 29 30 29 30 39 39 37 34 35 36 40 45 51 55
36 39 39 35 37 35 28 25 27 28 30 35 37 43 49 47 47 46 40 42 37 41 49 44 48 50 48 46 38 26 29 25 34 35 35 31 33 35 38 42 48 54 60
36 40 32 26 20 17 17 15 16 22 20 23 29 33 42 42 38 40 37 38 40 41 42 41 52 37 37 32 27 32 20 27 33 31 27 30 32 36 40 45 50 56 63
34 35 26 14 8 4 5 12 18 18 17 24 26 31 34 33 34 34 33 35 36 43 39 39 40 40 39 31 26 19 28 28 27 24 25 29 33 38 43 50 55 60 64
31 25 21 9 4 5 9 16 18 19 23 22 24 30 31 30 28 32 32 40 29 32 35 42 34 29 24 22 18 17 20 20 19 21 26 29 34 41 46 52 58 64 70
20 21 7 4 10 9 11 16 23 21 23 22 23 28 28 28 28 27 37 20 25 27 37 38 30 23 20 21 14 13 13 14 17 22 26 31 37 43 49 54 60 70 72
21 10 3 3 12 11 15 18 20 21 23 25 24 24 25 26 26 28 34 20 21 27 31 21 23 19 12 8 8 8 10 13 17 22 27 33 38 45 51 59 68 71 54
19 5 7 9 12 15 17 26 25 25 26 26 25 25 24 19 28 32 24 18 25 27 25 23 17 10 7 5 5 7 10 14 18 25 30 35 42 48 58 67 68 57 35
7 5 17 9 16 20 26 31 30 31 29 26 25 23 23 29 24 24 9 13 26 22 25 16 9 3 4 3 5 7 11 16 22 26 31 40 47 54 63 67 55 34 26
13 13 9 12 18 19 23 30 26 32 30 23 25 28 24 23 15 16 16 17 16 11 11 11 7 5 3 1 5 8 13 19 24 29 37 44 50 59 62 55 38 24 23
7 4 14 23 26 17 22 26 18 26 24 31 29 27 25 23 13 15 20 27 28 8 9 9 7 5 2 2 7 11 16 21 26 32 40 48 54 60 56 39 25 25 20
2 13 16 17 12 20 16 27 25 21 26 25 23 24 24 27 25 27 24 20 18 12 11 9 6 4 1 4 8 12 17 22 29 37 44 51 55 58 44 24 24 23 19
15 14 14 17 26 26 27 27 29 34 33 32 33 34 35 35 30 24 20 17 16 14 11 8 5 2 1 5 10 15 19 26 33 40 46 50 55 51 29 22 24 20 21
16 19 18 23 23 20 28 31 30 32 37 38 36 35 33 27 24 21 19 18 15 12 8 7 4 3 5 9 14 20 24 28 35 42 47 50 52 37 22 24 23 20 19
33 31 38 34 32 28 26 27 27 29 30 27 28 28 25 23 21 20 18 14 13 10 7 5 5 5 7 12 16 20 23 29 36 41 46 50 46 27 23 25 22 23 16
36 35 34 30 25 27 26 25 27 29 28 25 23 21 20 20 20 18 14 11 9 8 6 5 5 8 11 15 17 21 23 30 36 42 46 49 39 23 25 25 23 22 18
32 29 24 22 21 21 23 23 24 24 22 20 18 17 14 17 15 13 10 8 7 5 5 5 7 8 10 15 18 20 25 31 37 41 46 46 31 22 26 24 25 21 18
25 26 23 23 22 21 20 19 18 17 16 15 13 14 13 13 13 10 8 7 6 5 6 7 8 10 15 17 19 22 27 31 36 42 45 42 25 21 24 23 24 19 19
24 23 20 19 19 17 15 14 13 12 12 15 16 15 14 12 10 8 7 7 5 5 6 7 9 12 15 18 21 23 27 31 37 43 44 37 20 19 23 23 22 18 20
18 16 15 14 13 13 15 14 12 12 14 15 16 15 12 10 9 8 7 7 8 8 8 8 10 12 15 18 21 24 26 32 37 40 40 31 18 18 21 23 20 17 19
12 14 14 16 16 14 13 12 14 15 17 15 13 12 12 11 8 7 8 8 8 8 8 8 10 12 16 19 21 23 28 33 36 37 34 26 16 15 19 20 19 16 17
19 14 16 16 14 12 13 15 16 15 14 12 12 12 10 8 6 5 5 3 6 9 10 11 11 14 16 19 21 25 29 33 35 32 29 21 14 12 16 17 17 15 16
18 18 16 15 14 13 14 13 13 11 10 10 11 10 9 8 6 3 1 2 5 8 11 11 13 14 17 20 23 26 30 32 31 29 26 18 13 10 13 15 15 14 15
Wind_Direction
283 275 271 266 261 261 262 260 260 260 252 250 238 235 238 240 239 241 242 248 231 228 229 239 245 244 252 247 257 250 262 271 273 281 288 296 308 311 307 309 310 315 315
287 279 276 274 268 269 268 267 260 263 258 247 238 230 235 234 232 237 241 245 237 230 231 236 254 258 246 253 246 249 259 265 276 284 292 302 309 305 306 309 313 316 314
297 298 292 286 279 282 277 273 259 256 252 239 227 225 229 227 230 232 238 242 241 231 230 238 248 258 246 252 249 247 257 267 280 284 298 305 302 304 308 312 315 314 318
304 303 293 282 283 281 275 271 257 247 235 224 223 221 223 225 226 228 235 239 246 233 231 232 252 254 262 255 249 243 259 273 277 294 301 300 303 306 310 313 316 319 318
310 308 304 302 292 282 266 251 234 231 224 219 214 217 217 220 224 225 233 236 241 230 226 238 248 251 252 251 240 246 255 272 290 296 298 303 306 311 312 318 319 319 320
307 312 310 312 298 284 272 237 226 217 218 199 202 202 207 217 221 221 234 235 233 225 220 234 248 249 244 221 230 256 270 287 294 296 300 307 310 312 318 320 321 322 321
310 310 311 311 288 308 242 198 182 186 186 191 192 195 201 206 213 219 226 233 223 223 225 239 254 246 224 224 243 271 274 286 292 296 307 310 314 316 322 324 324 324 323
315 301 303 298 230 107 142 149 161 177 187 187 188 188 191 198 203 212 214 215 206 220 232 233 238 209 210 241 264 272 280 284 294 307 313 314 320 324 325 324 324 324 322
315 309 272 268 187 140 151 164 164 177 176 183 180 182 188 197 207 215 216 211 201 238 221 233 210 213 217 234 251 278 277 296 309 315 315 322 326 325 324 326 326 325 326
338 343 64 112 170 165 168 178 170 165 162 166 169 176 184 192 202 204 202 204 204 215 183 180 192 212 243 256 270 272 297 315 319 314 322 327 326 327 329 330 328 329 334
337 304 129 147 147 152 147 157 160 155 155 159 166 173 179 196 189 180 198 213 216 187 186 197 216 219 238 247 267 306 316 314 317 325 329 328 329 333 335 332 332 332 340
26 108 126 146 145 155 148 152 150 152 155 160 163 179 188 181 159 165 182 183 184 198 204 207 204 224 217 254 305 314 314 329 329 329 330 332 336 340 338 333 333 339 345
15 62 97 119 139 135 149 145 154 155 150 148 153 146 159 178 166 178 212 204 205 187 167 186 195 197 182 271 311 324 334 330 333 334 337 341 342 346 336 334 340 347 342
50 89 147 138 124 145 158 163 155 160 154 165 147 165 163 159 181 191 184 189 177 153 174 164 158 151 113 331 336 333 336 339 335 340 345 346 350 341 338 340 346 345 353
127 137 117 156 143 152 145 154 143 149 159 165 157 165 162 157 160 153 142 142 166 178 150 142 134 121 23 348 340 345 342 339 342 348 348 350 346 343 342 346 346 356 2
134 141 124 128 137 136 135 142 143 137 135 141 147 142 139 135 128 129 139 149 150 145 145 141 127 126 14 355 357 351 348 350 349 351 351 348 348 344 345 350 355 6 4
130 116 122 137 143 131 126 121 127 127 135 135 132 126 121 123 133 141 144 138 136 128 136 155 126 69 17 8 1 357 355 351 351 355 352 352 348 347 354 356 5 12 11
118 110 106 102 106 112 118 111 112 117 108 108 112 115 121 128 133 132 131 133 126 142 143 97 77 43 18 10 1 356 351 352 355 353 354 353 351 354 2 6 13 12 24
117 113 109 108 106 117 122 128 112 107 108 113 119 125 136 138 135 133 127 135 129 112 99 86 56 27 12 5 356 349 354 355 353 354 356 354 356 4 6 14 15 19 23
119 119 116 117 114 112 114 109 106 108 109 112 119 124 129 132 132 128 126 118 107 103 93 65 35 20 3 1 351 352 354 355 355 357 357 357 3 7 12 16 14 25 20
141 128 130 129 117 114 110 107 109 112 116 119 127 131 133 135 130 131 120 108 102 84 62 36 24 6 7 353 350 353 355 354 358 1 2 360 6 8 19 17 17 25 20
126 129 133 122 120 113 106 116 119 126 138 139 140 142 133 124 120 109 107 102 96 75 41 29 18 4 352 349 349 355 354 354 0 4 2 1 8 14 22 21 23 26 25
139 140 138 133 122 114 113 108 114 136 144 144 140 135 135 133 127 126 123 103 67 37 28 15 360 352 344 346 351 354 351 357 2 2 1 1 14 22 23 23 29 30 33
150 153 150 147 138 115 107 116 128 134 136 139 146 148 145 133 123 105 83 65 43 22 7 353 349 341 342 348 352 350 356 357 1 1 360 1 17 25 26 26 36 35 42
166 166 163 149 147 129 122 127 133 141 149 151 152 144 142 144 137 123 105 82 36 8 353 348 349 340 342 350 348 354 356 359 1 1 357 3 17 25 27 31 39 41 52
184 169 161 156 151 142 134 129 137 142 157 166 161 170 171 156 143 149 150 356 345 349 359 352 343 347 351 348 353 357 359 1 360 1 357 9 19 30 29 37 44 51 60
Height
5646 5642 5638 5635 5632 5630 5629 5630 5632 5636 5642 5649 5656 5661 5665 5673 5685 5690 5696 5700 5706 5713 5721 5727 5732 5734 5736 5739 5741 5743 5743 5745 5742 5738 5734 5729 5722 5716 5711 5703 5697 5688 5681
5631 5626 5623 5619 5613 5611 5612 5612 5613 5616 5620 5628 5636 5644 5651 5661 5673 5682 5685 5689 5694 5703 5712 5718 5722 5726 5729 5730 5733 5733 5737 5736 5735 5731 5725 5721 5715 5709 5701 5695 5687 5680 5674
5616 5610 5607 5602 5597 5594 5593 5592 5593 5597 5601 5608 5617 5626 5637 5654 5663 5672 5676 5681 5685 5693 5701 5712 5715 5719 5721 5723 5726 5726 5728 5729 5727 5723 5718 5713 5707 5700 5693 5686 5678 5672 5664
5605 5597 5591 5587 5582 5579 5575 5574 5576 5581 5587 5595 5603 5614 5628 5644 5654 5662 5669 5675 5679 5686 5696 5702 5702 5709 5711 5716 5718 5721 5723 5722 5720 5715 5710 5705 5698 5692 5685 5678 5670 5661 5651
5594 5586 5580 5574 5569 5563 5560 5561 5567 5573 5581 5587 5596 5610 5623 5637 5646 5655 5662 5669 5674 5680 5689 5695 5701 5703 5706 5710 5710 5716 5714 5714 5712 5708 5703 5697 5692 5685 5679 5672 5662 5650 5638
5587 5578 5572 5566 5560 5556 5554 5557 5563 5570 5577 5584 5593 5604 5617 5630 5640 5649 5657 5662 5667 5674 5681 5685 5691 5693 5698 5703 5706 5708 5710 5707 5704 5699 5695 5690 5685 5679 5672 5664 5653 5642 5626
5577 5571 5567 5563 5559 5555 5552 5556 5560 5568 5575 5584 5593 5603 5614 5626 5635 5645 5652 5657 5663 5670 5677 5681 5685 5689 5693 5699 5702 5703 5701 5700 5696 5693 5688 5684 5678 5672 5664 5653 5643 5632 5619
5570 5566 5562 5560 5560 5557 5556 5557 5563 5570 5577 5585 5594 5603 5613 5624 5633 5641 5646 5649 5657 5664 5670 5678 5680 5685 5690 5695 5697 5696 5694 5693 5690 5687 5683 5678 5672 5664 5654 5644 5632 5619 5607
5563 5557 5554 5556 5557 5558 5559 5563 5567 5573 5578 5586 5595 5604 5614 5623 5631 5637 5642 5645 5654 5660 5664 5671 5679 5683 5688 5690 5689 5689 5688 5687 5684 5681 5678 5672 5664 5656 5647 5635 5622 5605 5588
5560 5555 5555 5555 5557 5558 5561 5565 5570 5574 5579 5588 5597 5606 5614 5622 5628 5633 5641 5647 5654 5659 5665 5671 5676 5681 5683 5684 5684 5685 5683 5681 5678 5677 5673 5666 5659 5651 5638 5624 5609 5594 5579
5559 5556 5556 5557 5558 5559 5560 5565 5572 5577 5584 5592 5600 5608 5615 5619 5625 5633 5639 5645 5652 5658 5664 5669 5674 5677 5678 5680 5682 5680 5679 5678 5676 5672 5666 5660 5652 5641 5628 5613 5596 5584 5577
5559 5556 5557 5559 5559 5562 5563 5568 5575 5580 5587 5594 5601 5608 5611 5620 5628 5636 5642 5648 5653 5659 5663 5667 5671 5674 5677 5678 5677 5677 5678 5675 5672 5667 5661 5654 5642 5630 5617 5604 5591 5581 5575
5564 5561 5562 5562 5565 5569 5572 5570 5580 5583 5588 5596 5603 5610 5617 5623 5630 5638 5643 5649 5655 5661 5663 5669 5671 5673 5674 5675 5676 5676 5673 5671 5668 5662 5655 5644 5634 5620 5610 5598 5586 5581 5574
5569 5567 5567 5569 5572 5575 5576 5581 5583 5586 5589 5599 5607 5613 5620 5628 5633 5638 5643 5649 5654 5660 5664 5667 5669 5671 5673 5675 5674 5672 5670 5668 5664 5657 5647 5638 5625 5616 5602 5591 5586 5580 5573
5572 5572 5572 5572 5575 5579 5581 5584 5588 5592 5597 5603 5611 5617 5623 5628 5635 5640 5646 5652 5658 5661 5664 5667 5669 5671 5672 5671 5671 5671 5669 5665 5658 5650 5641 5631 5622 5611 5599 5591 5586 5578 5572
5578 5579 5580 5580 5582 5585 5587 5589 5592 5596 5601 5606 5613 5620 5626 5631 5637 5642 5648 5653 5657 5661 5665 5667 5668 5670 5671 5671 5670 5668 5663 5656 5652 5646 5637 5626 5617 5607 5598 5592 5584 5578 5573
5585 5587 5586 5588 5592 5594 5597 5599 5604 5606 5608 5613 5619 5625 5629 5636 5642 5648 5652 5657 5661 5662 5665 5668 5669 5669 5670 5668 5666 5662 5657 5654 5652 5642 5635 5624 5616 5604 5597 5589 5582 5578 5573
5595 5597 5598 5600 5602 5605 5607 5611 5615 5616 5619 5623 5625 5630 5636 5643 5647 5652 5656 5659 5661 5664 5667 5667 5668 5668 5666 5663 5661 5659 5656 5654 5648 5641 5632 5623 5612 5603 5596 5589 5582 5578 5573
5605 5606 5607 5609 5611 5614 5616 5619 5621 5623 5627 5632 5636 5640 5644 5648 5651 5654 5658 5661 5662 5663 5665 5666 5665 5663 5664 5663 5661 5658 5655 5652 5645 5639 5629 5621 5610 5600 5596 5590 5584 5579 5575
5611 5613 5614 5617 5619 5621 5623 5624 5626 5629 5633 5638 5641 5645 5650 5652 5655 5657 5659 5661 5662 5664 5665 5665 5665 5665 5665 5662 5660 5659 5655 5650 5645 5637 5628 5617 5606 5601 5596 5591 5586 5581 5577
5617 5619 5621 5624 5626 5627 5628 5630 5633 5637 5640 5644 5647 5650 5653 5656 5659 5662 5662 5663 5664 5666 5667 5667 5667 5668 5664 5663 5661 5658 5654 5650 5644 5636 5624 5615 5607 5603 5598 5593 5589 5585 5580
5622 5624 5626 5628 5630 5632 5635 5637 5640 5643 5646 5648 5652 5655 5657 5658 5660 5661 5664 5665 5668 5670 5668 5667 5667 5667 5666 5664 5661 5657 5653 5649 5641 5632 5622 5615 5609 5605 5601 5596 5592 5588 5584
5626 5628 5630 5632 5635 5637 5640 5642 5644 5648 5650 5653 5655 5657 5659 5662 5664 5666 5668 5668 5668 5668 5667 5668 5668 5667 5665 5663 5659 5654 5652 5645 5637 5629 5622 5616 5611 5606 5603 5599 5596 5592 5589
5630 5633 5635 5638 5639 5641 5643 5646 5648 5652 5655 5657 5660 5662 5665 5667 5668 5668 5667 5668 5669 5670 5671 5669 5667 5666 5664 5661 5657 5654 5648 5642 5635 5628 5622 5617 5612 5609 5605 5603 5600 5597 5594
5631 5635 5637 5640 5642 5644 5647 5650 5653 5656 5658 5660 5662 5664 5665 5667 5669 5669 5669 5671 5670 5671 5672 5669 5665 5666 5664 5660 5657 5651 5645 5640 5633 5628 5623 5618 5613 5611 5608 5606 5604 5602 5600
5631 5635 5638 5640 5643 5646 5649 5652 5655 5657 5660 5662 5663 5665 5669 5670 5670 5672 5672 5671 5670 5670 5668 5667 5667 5664 5661 5660 5654 5648 5643 5638 5633 5628 5622 5618 5615 5613 5610 5609 5607 5606 5604